Regional Weather Roundup
Issued by NWS

Home | Current Version | Previous Version | Text Only | Print | Product List | Glossary On
Versions: 1 2 3 4 5 6 7 8 9 10 11 12 13 14 15 16 17 18 19 20 21 22 23 24 25 26 27 28 29 30 31 32 33 34 35 36 37 38 39 40 41 42 43 44 45 46 47 48 49 50
341
ASUS43 KOAX 201702
RWRNE

WEATHER ROUNDUP FOR NEBRASKA
NATIONAL WEATHER SERVICE OMAHA NE
1100 AM CST FRI JAN 20 2017

NOTES: SATELLITE DATA IS BEING USED TO AUGMENT CLOUD COVER ABOVE
       12000 FEET.
       "FAIR" INDICATES FEW OR NO CLOUDS BELOW 12,000 FEET WITH NO
       SIGNIFICANT WEATHER AND/OR OBSTRUCTIONS TO VISIBILITY.

  * THESE STATIONS DO NOT REPORT WEATHER SUCH AS RAIN...SNOW OR FOG.

NEZ001>004-019>022-054>056-201800-
NEBRASKA PANHANDLE

CITY           SKY/WX    TMP DP  RH WIND       PRES   REMARKS
SCOTTSBLUFF    CLOUDY    35  27  72 W6        29.43F WCI  30
ALLIANCE       MOSUNNY   35  30  82 NW12      29.40F WCI  27
CHADRON        MOSUNNY   32  26  78 SW9       29.42R WCI  24
SIDNEY         CLOUDY    38  30  73 W12       29.44F WCI  30
$$

NEZ057>060-069>072-079>082-201800-
SOUTHWEST NEBRASKA

CITY           SKY/WX    TMP DP  RH WIND       PRES   REMARKS
NORTH PLATTE   CLOUDY    36  33  89 W6        29.46R WCI  31
IMPERIAL       CLOUDY    29  27  92 W6        29.45S FOG     WCI  23
LEXINGTON      CLOUDY    38  37  97 S8        29.47S FOG     WCI  32
MCCOOK         CLOUDY    35  35 100 NW6       29.46F FOG     WCI  30
OGALLALA       CLOUDY    29  28  96 W5        29.45F WCI  24
$$

NEZ005>010-023>029-035>040-094-201800-
NORTH CENTRAL NEBRASKA

CITY           SKY/WX    TMP DP  RH WIND       PRES   REMARKS
VALENTINE      SUNNY     37  29  72 SW9       29.39S WCI  30
AINSWORTH      SUNNY     39  32  77 S14       29.40S WCI  30
BROKEN BOW     CLOUDY    39  37  92 VRB3      29.45S
O`NEILL        SUNNY     42  38  86 SW14      29.45S
ORD            CLOUDY    37  34  89 SE6       29.46F WCI  32
THEDFORD       CLOUDY    32  32  99 S7        29.43S FOG     WCI  26
$$

NEZ041-046>049-061>064-073>077-083>087-201800-
SOUTH CENTRAL NEBRASKA

CITY           SKY/WX    TMP DP  RH WIND       PRES   REMARKS
GRAND ISLAND   CLOUDY    38  38 100 S7        29.50R WCI  33
AURORA         CLOUDY    39  39 100 S7        29.50S WCI  34
HASTINGS       FOG       39  38  96 S6        29.50S VSB 1/2 WCI  35
HEBRON         CLOUDY    40  40 100 CALM      29.51F FOG
HOLDREGE       DRIZZLE   38  38  97 SE5       29.47F WCI  35
KEARNEY *      CLOUDY    39  37  93 S8        29.48S VSB 1/4 WCI  34
YORK           CLOUDY    39  39 100 SE3       29.52S
$$

NEZ011>018-030>034-042>045-201800-
NORTHEAST NEBRASKA

CITY           SKY/WX    TMP DP  RH WIND       PRES   REMARKS
NORFOLK        CLOUDY    40  39  97 S8        29.49F WCI  34
ALBION         FOG      N/A N/A N/A S8        29.48F VSB 3/4
BLAIR          CLOUDY    42  42  99 E6        29.53F FOG
FREMONT        FOG       40  40 100 CALM      29.54F VSB 1/4
TEKAMAH        CLOUDY    40  39  97 SE7       29.54F FOG
WAYNE          CLOUDY    40  40  99 S10       29.51F WCI  33
$$

NEZ050>053-065>068-078-088>093-201800-
SOUTHEAST NEBRASKA

CITY           SKY/WX    TMP DP  RH WIND       PRES   REMARKS
LINCOLN        CLOUDY    41  41 100 SE6       29.54F
OMAHA EPPLEY   CLOUDY    43  39  86 SE8       29.54F FOG
BEATRICE       CLOUDY    42  42 100 SE3       29.53R
FALLS CITY     FOG       43  43 100 E3        29.55R VSB 1/4
NEBRASKA CITY  CLOUDY    41  41 100 E3        29.54F FOG
PLATTSMOUTH    CLOUDY    40  38  93 E6        29.54S FOG
$$

NEZ044-045-051>053-067-201800-
OMAHA AREA

CITY           SKY/WX    TMP DP  RH WIND       PRES   REMARKS
OMAHA EPPLEY   CLOUDY    43  39  86 SE8       29.54F FOG
BLAIR          CLOUDY    42  42  99 E6        29.53F FOG
FREMONT        FOG       40  40 100 CALM      29.54F VSB 1/4
MILLARD        CLOUDY    44  43  97 SE6       29.55R FOG
OFFUTT AFB     PTSUNNY   41  41 100 E6        29.54F
PLATTSMOUTH    CLOUDY    40  38  93 E6        29.54S FOG
WAHOO          FOG       38  38  97 CALM      29.53F VSB<1/4
$$




USA.gov is the U.S. government's official web portal to all federal, state and local government web resources and services.